Seward, AK

11:33 AM AKST on December 10, 2016 (GMT -0900)
Seward

Weather History for PAWD - July, 2013

Change the Weather History Date:

Saturday, July 6, 2013

  Actual Average Record
Temperature  
Mean Temperature 51 °F -  
Max Temperature 54 °F 61 °F 83 °F (1951)
Min Temperature 48 °F 49 °F 42 °F (1976)
Degree Days  
Heating Degree Days 14    
Growing Degree Days 1 (Base 50)    
Moisture  
Dew Point 50 °F    
Average Humidity 95    
Maximum Humidity 100    
Minimum Humidity 86    
Precipitation  
Precipitation 0.66 in - - ()
Sea Level Pressure  
Sea Level Pressure 30.02 in    
Wind  
Wind Speed 1 mph (South)    
Max Wind Speed 22 mph    
Max Gust Speed 32 mph    
Visibility 6 miles    
Events Rain    
Averages and records for this station are not official NWS values.
T = Trace of Precipitation, MM = Missing Value Source: NWS Daily Summary

Daily Weather History Graph

Daily Weather History Graph

Search for Another Location

Airport or City:

Trip Planner

Search our weather history database for the weather conditions in past years. The results will help you decide how hot, cold, wet, or windy it might be!

Date:

Astronomy

Jul. 06, 2013 Rise Set
Actual Time 4:45 AM AKDT 11:18 PM AKDT
Civil Twilight 3:12 AM AKDT 12:49 AM AKDT
Nautical Twilight Sun does not rise Sun does not rise
Astronomical Twilight Sun does not rise Sun does not rise
Moon 4:00 AM AKDT (7/6) 9:43 PM AKDT (7/6)
Length of Visible Light 21h 37m
Length of Day
18h 33m
Waning Crescent, 2% of the Moon is Illuminated
Jul 6
Waning Crescent
Jul 7
New
Jul 15
First Quarter
Jul 22
Full
Jul 29
Last Quarter

Hourly Weather History & Observations

Time (AKDT) Temp. Dew Point Humidity Pressure Visibility Wind Dir Wind Speed Gust Speed Precip Events Conditions
12:53 AM 50.0 °F 50.0 °F 100% 30.08 in 3.0 mi Calm Calm - 0.00 in Rain Light Rain
1:06 AM 50.0 °F 48.2 °F 94% 30.08 in 1.8 mi Calm Calm - 0.00 in Rain Light Rain
1:23 AM 50.0 °F 48.2 °F 94% 30.08 in 2.0 mi Calm Calm - 0.01 in Rain Light Rain
1:37 AM 50.0 °F 48.2 °F 94% 30.08 in 4.0 mi Calm Calm - 0.01 in Rain Light Rain
1:53 AM 50.0 °F 48.9 °F 96% 30.08 in 8.0 mi Calm Calm - 0.03 in Rain Light Rain
2:24 AM 51.8 °F 48.2 °F 88% 30.07 in 5.0 mi Calm Calm - 0.06 in Rain Rain
2:38 AM 50.0 °F 48.2 °F 94% 30.07 in 9.0 mi Calm Calm - 0.07 in Rain Light Rain
2:53 AM 50.0 °F 48.9 °F 96% 30.07 in 10.0 mi Calm Calm - 0.07 in   Overcast
3:35 AM 48.2 °F 48.2 °F 100% 30.06 in 1.8 mi Calm Calm - 0.02 in Rain Light Rain
3:53 AM 48.9 °F 48.9 °F 100% 30.06 in 1.0 mi Calm Calm - 0.02 in   Overcast
4:04 AM 50.0 °F 48.2 °F 94% 30.06 in 1.5 mi Calm Calm - 0.00 in Rain Light Rain
4:28 AM 50.0 °F 48.2 °F 94% 30.06 in 2.0 mi Calm Calm - 0.00 in Rain Light Rain
4:35 AM 50.0 °F 48.2 °F 94% 30.06 in 1.2 mi Calm Calm - 0.00 in Rain Light Rain
4:53 AM 50.0 °F 48.9 °F 96% 30.06 in 2.0 mi Calm Calm - 0.01 in   Overcast
5:01 AM 50.0 °F 48.2 °F 94% 30.05 in 4.0 mi Calm Calm - 0.00 in Rain Light Rain
5:16 AM 50.0 °F 48.2 °F 94% 30.05 in 6.0 mi Calm Calm - 0.02 in Rain Light Rain
5:53 AM 50.0 °F 48.9 °F 96% 30.05 in 7.0 mi Calm Calm - 0.03 in Rain Light Rain
6:11 AM 50.0 °F 48.2 °F 94% 30.04 in 10.0 mi Calm Calm - 0.00 in   Overcast
6:21 AM 50.0 °F 48.2 °F 94% 30.04 in 9.0 mi Calm Calm - 0.00 in   Overcast
6:31 AM 50.0 °F 48.2 °F 94% 30.04 in 1.5 mi Calm Calm - 0.00 in   Overcast
6:41 AM 50.0 °F 48.2 °F 94% 30.04 in 4.0 mi Calm Calm - 0.00 in   Overcast
6:46 AM 50.0 °F 48.2 °F 94% 30.04 in 10.0 mi Calm Calm - 0.00 in   Overcast
6:53 AM 50.0 °F 48.9 °F 96% 30.04 in 10.0 mi Calm Calm - 0.00 in   Overcast
7:07 AM 50.0 °F 48.2 °F 94% 30.04 in 10.0 mi Calm Calm - N/A   Overcast
7:53 AM 50.0 °F 48.9 °F 96% 30.04 in 10.0 mi Calm Calm - N/A   Overcast
8:12 AM 51.8 °F 50.0 °F 94% 30.04 in 8.0 mi Calm Calm - 0.02 in Rain Light Rain
8:20 AM 51.8 °F 50.0 °F 94% 30.03 in 5.0 mi Calm Calm - 0.02 in Rain Light Rain
8:33 AM 51.8 °F 50.0 °F 94% 30.04 in 4.0 mi Calm Calm - 0.05 in Rain Light Rain
8:53 AM 51.1 °F 50.0 °F 96% 30.04 in 5.0 mi Calm Calm - 0.09 in Rain Light Rain
9:18 AM 51.8 °F 51.8 °F 100% 30.04 in 10.0 mi Calm Calm - 0.02 in Rain Light Rain
9:53 AM 52.0 °F 51.1 °F 97% 30.04 in 10.0 mi Calm Calm - 0.05 in Rain Light Rain
10:19 AM 51.8 °F 51.8 °F 100% 30.04 in 8.0 mi Calm Calm - 0.00 in Rain Light Rain
10:53 AM 53.1 °F 51.1 °F 93% 30.03 in 7.0 mi Calm Calm - 0.03 in Rain Light Rain
11:05 AM 51.8 °F 51.8 °F 100% 30.03 in 7.0 mi Calm Calm - 0.00 in Rain Light Rain
11:16 AM 51.8 °F 50.0 °F 94% 30.03 in 10.0 mi Calm Calm - 0.00 in   Overcast
11:34 AM 51.8 °F 50.0 °F 94% 30.03 in 10.0 mi Calm Calm - 0.00 in   Overcast
11:53 AM 52.0 °F 50.0 °F 93% 30.03 in 10.0 mi Calm Calm - 0.00 in   Overcast
12:38 PM 51.8 °F 50.0 °F 94% 30.03 in 10.0 mi Calm Calm - N/A   Overcast
12:53 PM 52.0 °F 50.0 °F 93% 30.03 in 7.0 mi Calm Calm - 0.00 in Rain Light Rain
1:45 PM 51.8 °F 51.8 °F 100% 30.02 in 6.0 mi Calm Calm - 0.03 in Rain Light Rain
1:53 PM 52.0 °F 51.1 °F 97% 30.02 in 5.0 mi SE 3.5 mph - 0.04 in Rain Light Rain
1:58 PM 51.8 °F 50.0 °F 94% 30.01 in 4.0 mi Calm Calm - 0.00 in Rain Light Rain
2:05 PM 51.8 °F 51.8 °F 100% 30.01 in 4.0 mi Calm Calm - 0.02 in Rain Light Rain
2:17 PM 51.8 °F 51.8 °F 100% 30.01 in 6.0 mi Calm Calm - 0.02 in Rain Light Rain
2:53 PM 52.0 °F 51.1 °F 97% 30.01 in 10.0 mi Calm Calm - 0.02 in   Overcast
3:53 PM 52.0 °F 51.1 °F 97% 29.99 in 7.0 mi Calm Calm - 0.01 in   Overcast
4:12 PM 51.8 °F 51.8 °F 100% 29.99 in 8.0 mi Calm Calm - 0.02 in Rain Light Rain
4:53 PM 52.0 °F 51.1 °F 97% 29.97 in 5.0 mi Calm Calm - 0.02 in Rain Light Rain
5:41 PM 53.6 °F 51.8 °F 94% 29.95 in 8.0 mi Calm Calm - 0.04 in Rain Light Rain
5:53 PM 52.0 °F 51.1 °F 97% 29.95 in 10.0 mi Calm Calm - 0.04 in   Overcast
6:53 PM 53.1 °F 51.1 °F 93% 29.92 in 6.0 mi Calm Calm - 0.03 in Rain Light Rain
7:25 PM 53.6 °F 51.8 °F 94% 29.91 in 9.0 mi Calm Calm - 0.02 in Rain Light Rain
7:53 PM 53.1 °F 51.1 °F 93% 29.89 in 10.0 mi Calm Calm - 0.02 in   Overcast
8:53 PM 54.0 °F 50.0 °F 86% 29.86 in 6.0 mi South 6.9 mph - 0.01 in Rain Light Rain
9:53 PM 53.1 °F 50.0 °F 89% 29.83 in 7.0 mi SSW 18.4 mph 28.8 mph 0.00 in Rain Light Rain
10:53 PM 53.1 °F 50.0 °F 89% 29.81 in 10.0 mi SSW 21.9 mph 32.2 mph 0.03 in Rain Light Rain
11:53 PM 53.1 °F 50.0 °F 89% 29.80 in 6.0 mi SSW 18.4 mph 26.5 mph 0.11 in Rain Light Rain